When you browse on this site, cookies collect data to enhance your experience and personalize the content and advertising you see.
Visit our Privacy Policy to learn more. By continuing to use the site, you agree to this use of cookies and data.
  • In Germany
  • List of Countries
  • For 7 days
  • Water Temperature
  • Weather Map
  • Weather Widgets
  • user-avatar
    Login

    Hourly Weather Gjirokaster

    Today, 20 November, Wednesday

    Time Temperature Precipitation Wind Pressure Humidity
    00:00 +6°C° 2.5 mm 4 mps 650 mmHg 89%
    01:00 +6°C° 0 mm 5 mps 649 mmHg 92%
    02:00 +5°C° 7.4 mm 5 mps 649 mmHg 93%
    03:00 +4°C° 7.4 mm 4 mps 648 mmHg 94%
    04:00 +3°C° 7.4 mm 4 mps 648 mmHg 95%
    05:00 +3°C° 6.7 mm 4 mps 648 mmHg 94%
    06:00 +4°C° 6.7 mm 4 mps 648 mmHg 93%
    07:00 +4°C° 6.7 mm 4 mps 649 mmHg 92%
    08:00 +5°C° 0.2 mm 3 mps 649 mmHg 88%
    09:00 +5°C° 0.2 mm 3 mps 650 mmHg 84%
    10:00 +7°C° 0.2 mm 3 mps 651 mmHg 80%
    11:00 +8°C° 0 mm 3 mps 651 mmHg 76%
    12:00 +9°C° 0 mm 3 mps 651 mmHg 72%
    13:00 +9°C° 0 mm 2 mps 651 mmHg 67%
    14:00 +9°C° 0 mm 2 mps 651 mmHg 71%
    15:00 +8°C° 0 mm 2 mps 651 mmHg 75%
    16:00 +8°C° 0 mm 1 mps 650 mmHg 79%
    17:00 +8°C° 0 mm 1 mps 650 mmHg 81%
    18:00 +7°C° 0 mm 1 mps 650 mmHg 83%
    19:00 +5°C° 0 mm 2 mps 650 mmHg 85%
    20:00 +6°C° 0 mm 1 mps 650 mmHg 84%
    21:00 +6°C° 0 mm 1 mps 650 mmHg 84%
    22:00 +6°C° 0 mm 1 mps 650 mmHg 83%
    23:00 +6°C° 0 mm 1 mps 650 mmHg 83%

    Tomorrow, 21 November, Thursday

    Time Temperature Precipitation Wind Pressure Humidity
    00:00 +5°C° 0 mm 1 mps 650 mmHg 84%
    01:00 +5°C° 0 mm 1 mps 650 mmHg 84%
    02:00 +5°C° 0 mm 1 mps 650 mmHg 84%
    03:00 +5°C° 0 mm 1 mps 650 mmHg 84%
    04:00 +5°C° 0 mm 1 mps 650 mmHg 84%
    05:00 +5°C° 0 mm 1 mps 649 mmHg 84%
    06:00 +5°C° 0 mm 1 mps 649 mmHg 83%
    07:00 +4°C° 0 mm 1 mps 649 mmHg 83%
    08:00 +6°C° 0 mm 1 mps 650 mmHg 78%
    09:00 +7°C° 0 mm 1 mps 650 mmHg 74%
    10:00 +9°C° 0 mm 1 mps 651 mmHg 69%
    11:00 +9°C° 0 mm 1 mps 650 mmHg 65%
    12:00 +10°C° 0 mm 1 mps 650 mmHg 62%
    13:00 +10°C° 0 mm 1 mps 650 mmHg 58%
    14:00 +9°C° 0 mm 1 mps 650 mmHg 64%
    15:00 +8°C° 0 mm 1 mps 649 mmHg 69%
    16:00 +6°C° 0 mm 0 mps 649 mmHg 74%
    17:00 +6°C° 0 mm 0 mps 649 mmHg 76%
    18:00 +5°C° 0 mm 0 mps 649 mmHg 77%
    19:00 +5°C° 0 mm 0 mps 649 mmHg 79%
    20:00 +5°C° 0 mm 0 mps 649 mmHg 79%
    21:00 +5°C° 0 mm 0 mps 649 mmHg 80%
    22:00 +5°C° 0 mm 1 mps 649 mmHg 80%
    23:00 +5°C° 0 mm 1 mps 649 mmHg 80%

    Day after tomorrow, 22 November, Friday

    Time Temperature Precipitation Wind Pressure Humidity
    00:00 +4°C° 0 mm 0 mps 649 mmHg 80%
    01:00 +4°C° 0 mm 0 mps 649 mmHg 80%
    02:00 +4°C° 0 mm 0 mps 649 mmHg 80%
    03:00 +4°C° 0 mm 0 mps 649 mmHg 81%
    04:00 +5°C° 0 mm 1 mps 648 mmHg 81%
    05:00 +4°C° 0 mm 1 mps 648 mmHg 81%
    06:00 +4°C° 0 mm 1 mps 648 mmHg 82%
    07:00 +4°C° 0 mm 1 mps 648 mmHg 82%
    08:00 +6°C° 0 mm 1 mps 649 mmHg 77%
    09:00 +7°C° 0 mm 1 mps 650 mmHg 73%
    10:00 +9°C° 0 mm 1 mps 651 mmHg 68%
    11:00 +9°C° 0 mm 1 mps 651 mmHg 66%
    12:00 +9°C° 0 mm 1 mps 651 mmHg 65%
    13:00 +10°C° 0 mm 1 mps 651 mmHg 63%
    14:00 +9°C° 0 mm 1 mps 650 mmHg 68%
    15:00 +8°C° 0 mm 1 mps 650 mmHg 74%
    16:00 +7°C° 0 mm 1 mps 650 mmHg 79%
    17:00 +6°C° 0 mm 0 mps 650 mmHg 81%
    18:00 +5°C° 0 mm 0 mps 650 mmHg 83%
    19:00 +5°C° 0 mm 0 mps 650 mmHg 86%
    20:00 +4°C° 0 mm 0 mps 650 mmHg 86%
    21:00 +5°C° 0 mm 1 mps 650 mmHg 86%
    22:00 +5°C° 0 mm 1 mps 650 mmHg 86%
    23:00 +5°C° 0 mm 1 mps 650 mmHg 86%

    23 November, Saturday

    Time Temperature Precipitation Wind Pressure Humidity
    00:00 +5°C° 0 mm 1 mps 650 mmHg 86%
    01:00 +5°C° 0 mm 1 mps 650 mmHg 86%
    02:00 +5°C° 0 mm 1 mps 650 mmHg 86%
    03:00 +4°C° 0 mm 2 mps 650 mmHg 86%
    04:00 +4°C° 0 mm 2 mps 650 mmHg 86%
    05:00 +4°C° 0 mm 2 mps 650 mmHg 85%
    06:00 +4°C° 0 mm 2 mps 650 mmHg 85%
    07:00 +4°C° 0 mm 2 mps 650 mmHg 84%
    08:00 +5°C° 0 mm 2 mps 650 mmHg 78%
    09:00 +6°C° 0 mm 2 mps 651 mmHg 72%
    10:00 +8°C° 0 mm 2 mps 651 mmHg 65%
    11:00 +8°C° 0 mm 2 mps 651 mmHg 64%
    12:00 +8°C° 0 mm 3 mps 651 mmHg 62%
    13:00 +9°C° 0 mm 3 mps 651 mmHg 60%
    14:00 +8°C° 0.1 mm 3 mps 651 mmHg 65%
    15:00 +7°C° 0.1 mm 3 mps 650 mmHg 70%
    16:00 +7°C° 0.1 mm 3 mps 650 mmHg 75%
    17:00 +5°C° 0.1 mm 3 mps 650 mmHg 76%
    18:00 +6°C° 0.1 mm 2 mps 650 mmHg 77%
    19:00 +6°C° 0.1 mm 2 mps 650 mmHg 78%
    20:00 +6°C° 0.1 mm 2 mps 650 mmHg 78%
    21:00 +6°C° 0.1 mm 2 mps 650 mmHg 77%
    22:00 +6°C° 0.1 mm 2 mps 651 mmHg 77%
    23:00 +6°C° 0.1 mm 2 mps 651 mmHg 77%

    24 November, Sunday

    Time Temperature Precipitation Wind Pressure Humidity
    00:00 +6°C° 0.1 mm 2 mps 651 mmHg 76%
    01:00 +6°C° 0.1 mm 2 mps 651 mmHg 76%
    02:00 +6°C° 0 mm 2 mps 650 mmHg 76%
    03:00 +5°C° 0 mm 2 mps 650 mmHg 76%
    04:00 +5°C° 0 mm 2 mps 650 mmHg 76%
    05:00 +5°C° 0 mm 2 mps 649 mmHg 76%
    06:00 +5°C° 0 mm 2 mps 649 mmHg 76%
    07:00 +4°C° 0 mm 2 mps 649 mmHg 77%
    08:00 +6°C° 0 mm 2 mps 650 mmHg 73%
    09:00 +7°C° 0 mm 2 mps 650 mmHg 69%
    10:00 +8°C° 0 mm 2 mps 651 mmHg 66%
    11:00 +9°C° 0 mm 2 mps 650 mmHg 64%
    12:00 +9°C° 0 mm 2 mps 650 mmHg 62%
    13:00 +10°C° 0 mm 2 mps 650 mmHg 60%
    14:00 +9°C° 0 mm 2 mps 649 mmHg 64%
    15:00 +8°C° 0 mm 2 mps 649 mmHg 68%
    16:00 +8°C° 0 mm 2 mps 648 mmHg 72%
    17:00 +7°C° 0 mm 2 mps 648 mmHg 73%
    18:00 +7°C° 0 mm 2 mps 648 mmHg 74%
    19:00 +7°C° 0 mm 3 mps 647 mmHg 74%
    20:00 +7°C° 0.1 mm 3 mps 647 mmHg 75%
    21:00 +5°C° 0.1 mm 3 mps 647 mmHg 76%
    22:00 +5°C° 0.1 mm 3 mps 647 mmHg 77%
    23:00 +5°C° 0.6 mm 4 mps 646 mmHg 80%

    25 November, Monday

    Time Temperature Precipitation Wind Pressure Humidity
    00:00 +5°C° 0.6 mm 4 mps 646 mmHg 84%
    01:00 +5°C° 0.6 mm 4 mps 645 mmHg 87%
    02:00 +5°C° 0.3 mm 4 mps 645 mmHg 87%
    03:00 +5°C° 0.3 mm 3 mps 645 mmHg 86%
    04:00 +5°C° 0.3 mm 3 mps 644 mmHg 86%
    05:00 +5°C° 0.4 mm 3 mps 644 mmHg 87%
    06:00 +5°C° 0.4 mm 3 mps 645 mmHg 87%
    07:00 +5°C° 0.4 mm 2 mps 645 mmHg 88%
    08:00 +6°C° 0.1 mm 2 mps 645 mmHg 85%
    09:00 +7°C° 0.1 mm 2 mps 646 mmHg 81%
    10:00 +8°C° 0.1 mm 1 mps 646 mmHg 77%
    11:00 +8°C° 0.2 mm 1 mps 646 mmHg 79%
    12:00 +8°C° 0.2 mm 1 mps 645 mmHg 81%
    13:00 +8°C° 0.2 mm 1 mps 645 mmHg 82%
    14:00 +8°C° 0.5 mm 1 mps 645 mmHg 85%
    15:00 +8°C° 0.5 mm 1 mps 645 mmHg 87%
    16:00 +7°C° 0.5 mm 1 mps 645 mmHg 90%
    17:00 +7°C° 0.7 mm 1 mps 645 mmHg 90%
    18:00 +7°C° 0.7 mm 1 mps 645 mmHg 90%
    19:00 +7°C° 0.7 mm 1 mps 645 mmHg 90%
    20:00 +7°C° 0.3 mm 1 mps 645 mmHg 90%
    21:00 +7°C° 0.3 mm 1 mps 645 mmHg 89%
    22:00 +7°C° 0.3 mm 1 mps 645 mmHg 88%
    23:00 +7°C° 0 mm 1 mps 645 mmHg 87%
    Show more